STARLINK-5578, 55374

Orbit data source: Space-Track

STARLINK-5578, 55374 is a payload satellite owned by SpaceX/Seattle (US) in LEO that was launched on Thu, 26 Jan 2023 UTC via an FALCON 9 launch vehicle from the Air Force Eastern Test Range (AFETR). Payload-class satellites include a variety of spacecraft equipped with specific instruments for various scientific and technological missions. These include communications satellites like Starlink; space stations such as the ISS; scientific satellites like the Hubble; Earth observation satellites from companies like Planet Labs, Umbra, and HawkEye 360; GPS; miniature CubeSats for education and research; and military/defense satellites.

Loading next visibility...
Identifier
55374, 2023-013AV
Orbit
LEO
Country
Flag of USUS
Related business
Manufacturer
SpaceX/Seattle
Mission
Operational Commercial Communications
Bus & Motor
STARLINK, Unknown motor
Mass
305 kg wet, ~290 kg dry
Launch date (UTC)
2023-01-26 (3 years ago)
Launch vehicle
FALCON 9
Launch site
Air Force Eastern Test Range (AFETR)
Object type
Payload
Rocket body
Debris
Shape & HBR
Box + 1 Pan, 10.1 m
Radar Cross Section
13.562 m², Large (>1 m²)

Expand to show TLE details & history
Last TLE update: 19 hours ago

TLE from 19 hours ago
0 STARLINK-5578
1 55374U 23013AV  25348.88101641 -.00000645  00000-0 -32706-4 0  9993
2 55374  43.0025  54.0060 0000961 262.9335  97.1398 15.02538175158807
Epoch: 2025-12-14T21:08Z
TLE epoch observation values (Epoch: 2025-12-14T21:08:39.817Z)
Latitude
-0.00004°
Longitude
13.05248°
Altitude
558.934 km
Speed
7.584 km/s
True Right ascension
03h 36m 01s
True Declination
0° 00' 00"
Sunlit
Object was in full shadow at epoch
Visualization orbit readout
Latitude
Unknown
Longitude
Unknown
Altitude
Unknown
Speed
Unknown
Apparent Right ascension
Unknown
Apparent Declination
Unknown
Sunlit
N/A
Visualization observer readout
Local Sidereal Time
15:08:55
Azimuth
Unknown
Elevation
Unknown
Doppler factor
Unknown
Orbital elements
Apogee altitude
561.663 km
Perigee altitude
560.33 km
Semi-major axis
6,939.133 km
Eccentricity
0.0001
Inclination
43.0025°
RAAN
54.006°
Arg. of periapsis
262.9335°
True anomaly
97.15073°
Mean anomaly
97.1398°
Eccentric anomaly
97.14526°
Mean motion
3.75479 °/min
Orbital period
95.88 mins
BSTAR
-0.000032706
Loading maneuver chart data...
Computing Atmospheric mass density...
Loading historical data...
Loading historical data...
Loading historical data...
Loading historical data...
Loading historical data...
Loading historical data...
Loading historical data...

Documentation

Showing up to 5 results
|